Weather in Luknovo

Russia / Vladimir Oblast     56°10′35″N   42°02′28″E
temp.,
°C
wind,
m/s
gust,
m/s
humid.,
%
clouds,
%
prec.,
mm/h
press.,
hPa
HPBL,
m
28 september, tue
tue2800:00+5ne4991100 0.1 1025864
03:00+5ne4989100 0.1 1026672
06:00+3ne399630 0.0 1028413
09:00+5ene488146 0.0 1030657
12:00+9ene355761 0.0 1030996
15:00+10ne454968 0.0 10311176
18:00+5nne347117 0.0 103268
21:00+4n24791 0.0 103380
29 september, wed
wed2900:00+2n22835 0.0 103430
03:00+2n228634 0.0 103433
06:00+1nnw238841 0.0 103452
09:00+6n24695 0.0 1034312
12:00+10nne23545 0.0 1034939
15:00+11n345115 0.0 10331130
18:00+7n227565 0.0 103319
21:00+6nne118476 0.0 103410
30 september, thu
thu3000:00+6nw1181100 0.0 103411
03:00+7nw2284100 0.0 103454
06:00+5nw229410 0.0 103415
09:00+8nw2483100 0.0 1034186
12:00+11nw237335 0.0 1034533
15:00+13nw3365100 0.1 10331160
18:00+11wnw247898 0.0 103388
21:00+8wnw249349 0.0 103369
1 october, fri
fri100:00+7wnw24955 0.0 103476
03:00+7wnw259681 0.0 1034104
06:00+6nw269710 0.0 1034115
09:00+10nw35795 0.0 1034286
12:00+14nw336531 0.0 1034754
15:00+15nw336231 0.0 1033954
18:00+10wnw22835 0.0 103323
21:00+9wnw22895 0.0 103331
2 october, sat
sat200:00+8wnw22938 0.0 103325
03:00+7w22945 0.0 103322
06:00+6w229521 0.0 103328
09:00+10w237553 0.0 1034259
12:00+14wsw235435 0.0 1033822
15:00+15wsw235128 0.0 10321067
18:00+10sw22735 0.0 103210
21:00+8sw22805 0.0 103321